This is the latest recevied weather packets stored in our database for station/object W4JCW. If no packets are shown the sender has not sent any weather packets the latest 10 day(s).
| Time | Temp. | Humidity | Pressure | Rain* | Wind** | Luminosity | Snow |
|---|---|---|---|---|---|---|---|
| 1777663715 | 18.33° C | 53% | 1012 hPa | 0 mm | - | 425 W/m² | - |
| 1777663412 | 18.33° C | 54% | 1012 hPa | 0 mm | - | 749 W/m² | - |
| 1777663109 | 18.89° C | 54% | 1012 hPa | 0 mm | - | 713 W/m² | - |
| 1777662806 | 17.78° C | 54% | 1012.2 hPa | 0 mm | - | 467 W/m² | - |
| 1777662503 | 18.33° C | 52% | 1012.4 hPa | 0 mm | - | 197 W/m² | - |
| 1777662199 | 18.33° C | 54% | 1012.4 hPa | 0 mm | - | 414 W/m² | - |
| 1777661894 | 17.78° C | 53% | 1012.3 hPa | 0 mm | - | 459 W/m² | - |
| 1777661591 | 17.78° C | 53% | 1012.2 hPa | 0 mm | - | 344 W/m² | - |
| 1777661286 | 17.78° C | 55% | 1012.2 hPa | 0 mm | - | 349 W/m² | - |
| 1777660982 | 17.22° C | 53% | 1012.3 hPa | 0 mm | - | 480 W/m² | - |
| 1777660678 | 17.78° C | 54% | 1012.5 hPa | 0 mm | - | 282 W/m² | - |
| 1777660376 | 17.78° C | 54% | 1012.7 hPa | 0 mm | - | 277 W/m² | - |
| 1777660071 | 17.78° C | 54% | 1012.5 hPa | 0 mm | - | 282 W/m² | - |
| 1777659769 | 17.78° C | 52% | 1012.6 hPa | 0 mm | - | 263 W/m² | - |
| 1777659465 | 17.78° C | 52% | 1012.6 hPa | 0 mm | - | 248 W/m² | - |
| 1777659163 | 17.78° C | 54% | 1012.7 hPa | 0 mm | - | 241 W/m² | - |
| 1777658860 | 17.22° C | 54% | 1012.6 hPa | 0 mm | - | 275 W/m² | - |
| 1777658556 | 17.78° C | 51% | 1012.6 hPa | 0 mm | - | 261 W/m² | - |
| 1777658253 | 17.78° C | 53% | 1012.1 hPa | 0 mm | - | 310 W/m² | - |
| 1777657950 | 17.22° C | 55% | 1012.6 hPa | 0 mm | - | 452 W/m² | - |
| 1777657646 | 17.78° C | 52% | 1012.5 hPa | 0 mm | - | 467 W/m² | - |
| 1777657344 | 17.22° C | 52% | 1012.5 hPa | 0 mm | - | 604 W/m² | - |
| 1777657042 | 16.67° C | 55% | 1012.5 hPa | 0 mm | - | 441 W/m² | - |
| 1777656739 | 16.67° C | 55% | 1012.8 hPa | 0 mm | - | 333 W/m² | - |
| 1777656434 | 16.67° C | 53% | 1012.8 hPa | 0 mm | - | 309 W/m² | - |
* Rain latest hour (hover to see other rain measurements)
** Current wind speed in m/s (hover to see current wind gust speed)